Weather History for Gustavus, AK

Change the Weather History Date:

Friday, November 5, 2010

  Actual Average Record
Temperature  
Mean Temperature 42 °F -  
Max Temperature 46 °F 41 °F 50 °F (1949)
Min Temperature 37 °F 28 °F 12 °F (1985)
Degree Days  
Heating Degree Days 24    
Moisture  
Dew Point 34 °F    
Average Humidity 75    
Maximum Humidity 87    
Minimum Humidity 53    
Precipitation  
Precipitation 0.00 in - - ()
Sea Level Pressure  
Sea Level Pressure 29.56 in    
Wind  
Wind Speed 11 mph (SE)    
Max Wind Speed 20 mph    
Max Gust Speed 26 mph    
Visibility 10 miles    
Events      
Averages and records for this station are not official NWS values.
T = Trace of Precipitation, MM = Missing Value Source: NWS Daily Summary

Daily Weather History Graph

Daily Weather History Graph

Search for Another Location

Airport:

Trip Planner

Search our weather history database for the weather conditions in past years. The results will help you decide how hot, cold, wet, or windy it might be!

Date:

Astronomy

Nov. 05, 2010 Rise Set
Actual Time 8:28 AM AKDT 5:03 PM AKDT
Civil Twilight 7:44 AM AKDT 5:47 PM AKDT
Nautical Twilight 6:57 AM AKDT 6:34 PM AKDT
Astronomical Twilight 6:10 AM AKDT 7:20 PM AKDT
Moon 8:17 AM AKDT (11/5) 4:13 PM AKDT (11/5)
Length of Visible Light 10h 02m
Length of Day
8h 34m
Waning Crescent, 0% of the Moon is Illuminated
Nov 5
Waning Crescent
Nov 5
New
Nov 13
First Quarter
Nov 21
Full
Nov 28
Last Quarter

Hourly Weather History & Observations

Time (AKDT) Temp. Windchill Dew Point Humidity Pressure Visibility Wind Dir Wind Speed Gust Speed Precip Events Conditions
12:16 AM 39.2 °F 33.0 °F 35.6 °F 87% 29.51 in 10.0 mi SE 9.2 mph - N/A   Overcast
12:36 AM 39.2 °F 31.6 °F 35.6 °F 87% 29.52 in 10.0 mi SE 12.7 mph - N/A   Mostly Cloudy
12:56 AM 39.2 °F 32.0 °F 35.6 °F 87% 29.52 in 10.0 mi SE 11.5 mph - N/A   Overcast
1:16 AM 39.2 °F 34.2 °F 35.6 °F 87% 29.53 in 10.0 mi SE 6.9 mph - N/A   Overcast
1:36 AM 39.2 °F 32.0 °F 35.6 °F 87% 29.53 in 10.0 mi SSE 11.5 mph 16.1 mph N/A   Overcast
1:56 AM 39.2 °F 34.2 °F 35.6 °F 87% 29.55 in 10.0 mi SSE 6.9 mph - N/A   Overcast
2:16 AM 39.2 °F 33.0 °F 35.6 °F 87% 29.55 in 10.0 mi SE 9.2 mph - N/A   Mostly Cloudy
2:36 AM 39.2 °F 37.0 °F 35.6 °F 87% 29.56 in 10.0 mi SE 3.5 mph - N/A   Overcast
2:56 AM 39.2 °F 33.6 °F 35.6 °F 87% 29.56 in 9.0 mi South 8.1 mph - N/A   Mostly Cloudy
3:16 AM 39.2 °F 33.0 °F 33.8 °F 81% 29.56 in 10.0 mi SSE 9.2 mph - N/A   Overcast
3:36 AM 39.2 °F 35.9 °F 33.8 °F 81% 29.57 in 10.0 mi SSE 4.6 mph - N/A   Overcast
3:56 AM 39.2 °F 33.0 °F 33.8 °F 81% 29.56 in 10.0 mi SE 9.2 mph - N/A   Mostly Cloudy
4:16 AM 39.2 °F 32.5 °F 33.8 °F 81% 29.57 in 10.0 mi SE 10.4 mph - N/A   Mostly Cloudy
4:36 AM 39.2 °F 32.0 °F 33.8 °F 81% 29.57 in 10.0 mi SE 11.5 mph - N/A   Overcast
4:56 AM 39.2 °F 32.0 °F 33.8 °F 81% 29.57 in 10.0 mi SSE 11.5 mph - N/A   Overcast
5:16 AM 39.2 °F 32.5 °F 33.8 °F 81% 29.58 in 10.0 mi SE 10.4 mph - N/A   Overcast
5:36 AM 39.2 °F 31.2 °F 33.8 °F 81% 29.58 in 10.0 mi SE 13.8 mph - N/A   Overcast
5:56 AM 39.2 °F 32.5 °F 33.8 °F 81% 29.58 in 10.0 mi SE 10.4 mph 20.7 mph N/A   Overcast
6:16 AM 37.4 °F 30.3 °F 33.8 °F 87% 29.58 in 10.0 mi SE 10.4 mph - N/A   Mostly Cloudy
6:36 AM 37.4 °F 31.4 °F 33.8 °F 87% 29.58 in 10.0 mi SSE 8.1 mph - N/A   Scattered Clouds
6:56 AM 39.2 °F 32.5 °F 33.8 °F 81% 29.58 in 10.0 mi SE 10.4 mph - N/A   Mostly Cloudy
7:16 AM 39.2 °F 34.2 °F 33.8 °F 81% 29.58 in 10.0 mi SE 6.9 mph - N/A   Overcast
7:36 AM 39.2 °F 33.0 °F 33.8 °F 81% 29.58 in 10.0 mi SE 9.2 mph - N/A   Overcast
7:56 AM 39.2 °F 31.6 °F 35.6 °F 87% 29.58 in 10.0 mi SE 12.7 mph 17.3 mph N/A   Overcast
8:16 AM 39.2 °F 33.0 °F 33.8 °F 81% 29.58 in 10.0 mi SE 9.2 mph - N/A   Mostly Cloudy
8:36 AM 39.2 °F 31.2 °F 35.6 °F 87% 29.58 in 10.0 mi SE 13.8 mph 18.4 mph N/A   Mostly Cloudy
8:56 AM 41.0 °F 33.5 °F 33.8 °F 76% 29.59 in 10.0 mi SSE 13.8 mph 20.7 mph N/A   Overcast
9:16 AM 41.0 °F 32.8 °F 35.6 °F 81% 29.59 in 10.0 mi SE 16.1 mph - N/A   Overcast
9:36 AM 41.0 °F 33.1 °F 35.6 °F 81% 29.59 in 10.0 mi SE 15.0 mph 23.0 mph N/A   Overcast
9:56 AM 41.0 °F 33.5 °F 35.6 °F 81% 29.59 in 10.0 mi SE 13.8 mph - N/A   Overcast
10:16 AM 41.0 °F 33.9 °F 35.6 °F 81% 29.59 in 10.0 mi SE 12.7 mph - N/A   Overcast
10:36 AM 42.8 °F 36.6 °F 33.8 °F 70% 29.59 in 10.0 mi SE 11.5 mph 18.4 mph N/A   Overcast
10:56 AM 42.8 °F 36.6 °F 33.8 °F 70% 29.59 in 10.0 mi SE 11.5 mph - N/A   Overcast
11:16 AM 42.8 °F 34.5 °F 35.6 °F 76% 29.59 in 10.0 mi SE 18.4 mph 25.3 mph N/A   Overcast
11:36 AM 42.8 °F 37.0 °F 35.6 °F 76% 29.59 in 10.0 mi SE 10.4 mph - N/A   Overcast
11:56 AM 42.8 °F 35.8 °F 35.6 °F 76% 29.59 in 10.0 mi SE 13.8 mph - N/A   Overcast
12:16 PM 44.6 °F 37.4 °F 33.8 °F 66% 29.58 in 10.0 mi SE 16.1 mph 20.7 mph N/A   Overcast
12:36 PM 44.6 °F 36.6 °F 33.8 °F 66% 29.58 in 10.0 mi SE 19.6 mph 23.0 mph N/A   Overcast
12:56 PM 44.6 °F 38.1 °F 33.8 °F 66% 29.58 in 10.0 mi SE 13.8 mph 24.2 mph N/A   Overcast
1:16 PM 44.6 °F 37.4 °F 33.8 °F 66% 29.57 in 10.0 mi SE 16.1 mph 21.9 mph N/A   Overcast
1:36 PM 44.6 °F 38.1 °F 33.8 °F 66% 29.57 in 10.0 mi SE 13.8 mph 21.9 mph N/A   Overcast
1:56 PM 44.6 °F 37.8 °F 33.8 °F 66% 29.57 in 10.0 mi SE 15.0 mph 26.5 mph N/A   Overcast
2:16 PM 44.6 °F 37.8 °F 33.8 °F 66% 29.57 in 10.0 mi SE 15.0 mph 19.6 mph N/A   Overcast
2:36 PM 44.6 °F 37.2 °F 33.8 °F 66% 29.56 in 10.0 mi SE 17.3 mph 25.3 mph N/A   Overcast
2:56 PM 44.6 °F 37.4 °F 33.8 °F 66% 29.56 in 10.0 mi SE 16.1 mph 21.9 mph N/A   Overcast
3:16 PM 44.6 °F 38.8 °F 33.8 °F 66% 29.56 in 10.0 mi SE 11.5 mph - N/A   Mostly Cloudy
3:36 PM 44.6 °F 38.8 °F 33.8 °F 66% 29.55 in 10.0 mi SE 11.5 mph - N/A   Overcast
3:56 PM 44.6 °F 38.4 °F 33.8 °F 66% 29.54 in 10.0 mi SE 12.7 mph - N/A   Overcast
4:16 PM 44.6 °F 37.8 °F 32.0 °F 61% 29.54 in 10.0 mi SE 15.0 mph 20.7 mph N/A   Mostly Cloudy
4:36 PM 46.4 °F 39.5 °F 32.0 °F 57% 29.53 in 10.0 mi SE 17.3 mph - N/A   Overcast
4:56 PM 44.6 °F 37.4 °F 32.0 °F 61% 29.53 in 10.0 mi SE 16.1 mph 21.9 mph N/A   Overcast
5:16 PM 44.6 °F 38.4 °F 32.0 °F 61% 29.52 in 10.0 mi ESE 12.7 mph - N/A   Overcast
5:36 PM 46.4 °F 40.4 °F 30.2 °F 53% 29.52 in 10.0 mi SE 13.8 mph - N/A   Overcast
5:56 PM 44.6 °F 38.1 °F 32.0 °F 61% 29.52 in 10.0 mi SSE 13.8 mph 24.2 mph N/A   Overcast
6:16 PM 44.6 °F 38.8 °F 32.0 °F 61% 29.51 in 10.0 mi SE 11.5 mph - N/A   Overcast
6:36 PM 44.6 °F 38.1 °F 32.0 °F 61% 29.51 in 10.0 mi SE 13.8 mph 21.9 mph N/A   Overcast
6:56 PM 44.6 °F 38.4 °F 32.0 °F 61% 29.50 in 10.0 mi SE 12.7 mph 20.7 mph N/A   Overcast
7:16 PM 46.4 °F 41.1 °F 30.2 °F 53% 29.50 in 10.0 mi ESE 11.5 mph 25.3 mph N/A   Overcast
7:36 PM 46.4 °F 42.4 °F 30.2 °F 53% 29.50 in 10.0 mi ESE 8.1 mph 19.6 mph N/A   Overcast
7:56 PM 46.4 °F 38.7 °F 30.2 °F 53% 29.50 in 10.0 mi ESE 20.7 mph 27.6 mph N/A   Overcast
8:16 PM 46.4 °F 40.1 °F 30.2 °F 53% 29.50 in 10.0 mi SE 15.0 mph 20.7 mph N/A   Overcast
8:36 PM 46.4 °F 39.5 °F 32.0 °F 57% 29.49 in 10.0 mi SE 17.3 mph 25.3 mph N/A   Overcast
8:56 PM 46.4 °F 39.5 °F 30.2 °F 53% 29.49 in 10.0 mi SE 17.3 mph 26.5 mph N/A   Overcast
9:16 PM 46.4 °F 39.5 °F 30.2 °F 53% 29.49 in 10.0 mi SE 17.3 mph 21.9 mph N/A   Overcast
9:36 PM 46.4 °F 38.5 °F 30.2 °F 53% 29.48 in 10.0 mi SE 21.9 mph 27.6 mph N/A   Overcast
9:56 PM 46.4 °F 40.7 °F 30.2 °F 53% 29.48 in 10.0 mi ESE 12.7 mph 20.7 mph N/A   Overcast
10:16 PM 46.4 °F 39.8 °F 30.2 °F 53% 29.48 in 10.0 mi ESE 16.1 mph 26.5 mph N/A   Overcast
10:36 PM 46.4 °F 41.1 °F 30.2 °F 53% 29.47 in 10.0 mi SE 11.5 mph 16.1 mph N/A   Overcast
10:56 PM 46.4 °F 42.9 °F 30.2 °F 53% 29.47 in 10.0 mi East 6.9 mph 16.1 mph N/A   Overcast
11:16 PM 46.4 °F 41.5 °F 30.2 °F 53% 29.47 in 10.0 mi ESE 10.4 mph - N/A   Overcast
11:36 PM 46.4 °F 41.9 °F 30.2 °F 53% 29.47 in 10.0 mi ESE 9.2 mph - N/A   Overcast
11:56 PM 46.4 °F 43.5 °F 30.2 °F 53% 29.47 in 10.0 mi East 5.8 mph 17.3 mph N/A   Overcast